Weather History for Seward, AK

Change the Weather History Date:

Wednesday, October 27, 2010

  Actual Average Record
Temperature  
Mean Temperature 36 °F -  
Max Temperature 43 °F 39 °F 50 °F (2013)
Min Temperature 30 °F 30 °F 14 °F (1976)
Degree Days  
Heating Degree Days 28    
Moisture  
Dew Point 34 °F    
Average Humidity 86    
Maximum Humidity 96    
Minimum Humidity 73    
Precipitation  
Precipitation 0.18 in - - ()
Sea Level Pressure  
Sea Level Pressure 29.90 in    
Wind  
Wind Speed 5 mph (South)    
Max Wind Speed 20 mph    
Max Gust Speed 31 mph    
Visibility 9 miles    
Events Rain    
Averages and records for this station are not official NWS values.
T = Trace of Precipitation, MM = Missing Value Source: NWS Daily Summary

Daily Weather History Graph

Daily Weather History Graph

Search for Another Location

Airport:

Trip Planner

Search our weather history database for the weather conditions in past years. The results will help you decide how hot, cold, wet, or windy it might be!

Date:

Astronomy

Oct. 27, 2010 Rise Set
Actual Time 9:08 AM AKDT 6:13 PM AKDT
Civil Twilight 8:23 AM AKDT 6:58 PM AKDT
Nautical Twilight 7:34 AM AKDT 7:47 PM AKDT
Astronomical Twilight 6:46 AM AKDT 8:35 PM AKDT
Moon 8:42 PM AKDT (10/27) 2:58 PM AKDT (10/27)
Length of Visible Light 10h 34m
Length of Day
9h 05m
Waning Gibbous, 78% of the Moon is Illuminated
Oct 27
Waning Gibbous
Oct 30
Last Quarter
Nov 5
New
Nov 13
First Quarter
Nov 21
Full

Hourly Weather History & Observations

Time (AKDT) Temp. Windchill Dew Point Humidity Pressure Visibility Wind Dir Wind Speed Gust Speed Precip Events Conditions
12:53 AM 30.9 °F 27.5 °F 30.0 °F 96% 29.91 in 9.0 mi NW 3.5 mph - N/A   Overcast
1:46 AM 33.8 °F - 30.2 °F 87% 29.92 in 10.0 mi Calm Calm - 0.00 in Rain Light Freezing Rain
1:53 AM 33.1 °F - 30.9 °F 92% 29.92 in 10.0 mi Calm Calm - 0.00 in Rain Light Freezing Rain
2:07 AM 32.0 °F 28.7 °F 30.2 °F 93% 29.92 in 10.0 mi North 3.5 mph - 0.00 in   Overcast
2:53 AM 33.1 °F - 30.9 °F 92% 29.94 in 10.0 mi Calm Calm - 0.00 in   Overcast
3:53 AM 33.1 °F - 32.0 °F 96% 29.96 in 10.0 mi Calm Calm - N/A   Overcast
4:53 AM 33.1 °F - 30.9 °F 92% 29.96 in 10.0 mi Calm Calm - 0.00 in   Overcast
5:53 AM 34.0 °F 31.0 °F 32.0 °F 92% 29.98 in 10.0 mi Variable 3.5 mph - 0.00 in   Overcast
6:53 AM 33.1 °F - 30.9 °F 92% 29.98 in 10.0 mi Calm Calm - N/A   Overcast
7:53 AM 33.1 °F - 30.9 °F 92% 29.99 in 10.0 mi Calm Calm - 0.00 in   Overcast
8:53 AM 33.1 °F 30.0 °F 30.9 °F 92% 29.99 in 10.0 mi NNW 3.5 mph - N/A   Overcast
9:53 AM 33.1 °F - 30.9 °F 92% 29.99 in 10.0 mi Calm Calm - N/A   Mostly Cloudy
10:53 AM 34.0 °F 31.0 °F 32.0 °F 92% 29.98 in 10.0 mi NNW 3.5 mph - N/A   Overcast
11:53 AM 36.0 °F - 34.0 °F 93% 29.98 in 10.0 mi Calm Calm - 0.00 in Rain Light Rain
12:53 PM 37.9 °F - 36.0 °F 93% 29.97 in 10.0 mi Calm Calm - 0.01 in   Overcast
1:53 PM 39.9 °F - 37.0 °F 89% 29.97 in 10.0 mi Calm Calm - 0.00 in Rain Light Rain
2:53 PM 42.1 °F 36.1 °F 36.0 °F 79% 29.96 in 10.0 mi South 10.4 mph 16.1 mph 0.00 in Rain Light Rain
3:48 PM 41.0 °F 33.5 °F 35.6 °F 81% 29.93 in 9.0 mi SSW 13.8 mph - 0.01 in Rain Light Rain
3:53 PM 41.0 °F 33.5 °F 36.0 °F 82% 29.93 in 9.0 mi SSW 13.8 mph - 0.01 in Rain Light Rain
4:16 PM 41.0 °F 34.3 °F 35.6 °F 81% 29.92 in 10.0 mi South 11.5 mph - 0.00 in Rain Light Rain
4:53 PM 41.0 °F 34.7 °F 37.0 °F 86% 29.90 in 10.0 mi SE 10.4 mph - 0.01 in Rain Light Rain
5:04 PM 41.0 °F 37.1 °F 35.6 °F 81% 29.89 in 7.0 mi South 5.8 mph - 0.02 in Rain Light Rain
5:53 PM 41.0 °F 33.5 °F 36.0 °F 82% 29.87 in 5.0 mi South 13.8 mph 20.7 mph 0.08 in Rain Light Rain
6:53 PM 39.0 °F 36.8 °F 36.0 °F 89% 29.83 in 10.0 mi Variable 3.5 mph - 0.01 in   Overcast
7:38 PM 42.8 °F 34.3 °F 35.6 °F 76% 29.83 in 7.0 mi SSE 19.6 mph 26.5 mph 0.02 in Rain Light Rain
8:53 PM 42.1 °F 33.3 °F 35.1 °F 76% 29.80 in 10.0 mi South 19.6 mph 28.8 mph 0.01 in   Overcast
9:53 PM 42.1 °F 33.6 °F 34.0 °F 73% 29.74 in 9.0 mi South 18.4 mph 29.9 mph 0.01 in Rain Light Rain
10:03 PM 39.2 °F 30.2 °F 35.6 °F 87% 29.75 in 4.0 mi SSE 17.3 mph 31.1 mph 0.03 in Rain Rain
10:17 PM 42.8 °F 34.8 °F 35.6 °F 76% 29.74 in 10.0 mi SSW 17.3 mph 28.8 mph 0.03 in   Overcast
10:53 PM 43.0 °F 35.7 °F 36.0 °F 76% 29.72 in 10.0 mi South 15.0 mph 25.3 mph 0.04 in Rain Light Rain
11:53 PM 42.1 °F 35.7 °F 34.0 °F 73% 29.70 in 10.0 mi SSE 11.5 mph - 0.00 in   Overcast